Flag for Germany Weather past 2 weeks in Lübeck, Schleswig-Holstein, Germany

Now
61 °F

Clear.


Feels Like: 61 °F
Forecast: 60 / 79 °F
Wind: 6 mph from West

Location: Hamburg-Fuhlsbuettel

Current Time: Jul 31, 2014 at 2:25:38 AM

Latest Report: Jul 31, 2014 at 1:50 AM


Visibility: 10 mi

Pressure: 29.92 "Hg

Humidity: 88%

Dew point: 57 °F

Location of LübeckLocation

Historic Weather in Lübeck — Graph

°F

Lübeck temperature yesterday

Maximum temperature yesterday: 77 °F (at 3:50 PM)
Minimum temperature yesterday: 63 °F (at 8:20 AM)
Average temperature yesterday: 69 °F

Past Weeks' High & Low Weather Summary

 TemperatureHumidityPressure
High88 °F (Jul 19, 2:20 PM)100% (Jul 16, 4:50 AM)30.18 "Hg (Jul 16, 4:50 AM)
Low52 °F (Jul 17, 4:20 AM)29% (Jul 19, 6:20 PM)29.74 "Hg (Jul 30, 2:20 AM)
Average71 °F70%29.98 "Hg
* Reported Jul 16 1:20 AM — Jul 31 1:20 AM, Lübeck, Weather by CustomWeather, © 2014

Note: Actual official high and low records may vary slightly from our data, if they occured in-between our weather recording intervals... More about our weather records

Advertising

Lübeck weather history for previous 24 hours

 ConditionsComfort  
Time TempWeatherWind HumidityBarometerVisibility
1:20 AM
Jul 31
61 °FClear.6 mph88%29.89 "Hg10 mi
12:50 AM61 °FClear.6 mph88%29.89 "Hg10 mi
12:20 AM61 °FClear.6 mph88%29.89 "Hg10 mi
11:50 PM
Jul 30
63 °FClear.5 mph83%29.89 "Hg10 mi
11:20 PM63 °FClear.5 mph77%29.89 "Hg10 mi
10:50 PM64 °FClear.6 mph73%29.89 "Hg10 mi
10:20 PM64 °FClear.7 mph73%29.89 "Hg10 mi
9:50 PM66 °FSunny.8 mph68%29.89 "Hg10 mi
9:20 PM66 °FPartly sunny.7 mph68%29.89 "HgN/A
8:50 PM68 °FPartly sunny.9 mph60%29.86 "HgN/A
8:20 PM70 °FPartly sunny.13 mph60%29.86 "HgN/A
7:50 PM70 °FPassing clouds.14 mph60%29.86 "HgN/A
7:20 PM72 °FPassing clouds.15 mph53%29.86 "HgN/A
6:50 PM72 °FPassing clouds.16 mph53%29.83 "HgN/A
6:20 PM73 °FPassing clouds.16 mph53%29.83 "HgN/A
5:50 PM73 °FScattered clouds.15 mph50%29.83 "HgN/A
5:20 PM73 °FScattered clouds.17 mph53%29.83 "HgN/A
4:50 PM73 °FScattered clouds.15 mph53%29.83 "HgN/A
4:20 PM73 °FBroken clouds.16 mph61%29.83 "HgN/A
3:50 PM77 °FBroken clouds.13 mph57%29.83 "HgN/A
3:20 PM75 °FPartly sunny.14 mph50%29.83 "HgN/A
2:50 PM73 °FPartly sunny.13 mph61%29.83 "HgN/A
2:20 PM73 °FBroken clouds.14 mph61%29.83 "HgN/A
1:50 PM73 °FBroken clouds.13 mph61%29.80 "HgN/A
1:20 PM73 °FBroken clouds.10 mph65%29.80 "HgN/A
12:50 PM73 °FBroken clouds.10 mph69%29.80 "HgN/A
12:20 PM72 °FBroken clouds.12 mph73%29.80 "HgN/A
11:50 AM70 °FBroken clouds.12 mph73%29.80 "HgN/A
11:20 AM68 °FPartly sunny.12 mph83%29.80 "HgN/A
10:50 AM68 °FPartly sunny.12 mph78%29.80 "HgN/A
10:20 AM66 °FPartly sunny.12 mph83%29.80 "HgN/A
9:50 AM66 °FPartly sunny.8 mph83%29.80 "HgN/A
9:20 AM64 °FBroken clouds.7 mph88%29.77 "HgN/A
8:50 AM63 °FPartly sunny.8 mph88%29.77 "HgN/A
8:20 AM63 °FPartly sunny.10 mph88%29.77 "HgN/A
7:50 AM64 °FSunny.9 mph83%29.77 "Hg10 mi
7:20 AM64 °FSunny.9 mph83%29.77 "Hg10 mi
6:50 AM64 °FSunny.7 mph88%29.77 "Hg10 mi
6:20 AM64 °FLight rain. Passing clouds.6 mph88%29.77 "HgN/A
5:50 AM66 °FClear.6 mph83%29.77 "Hg10 mi
5:20 AM66 °FPassing clouds.8 mph83%29.74 "HgN/A
4:50 AM68 °FPassing clouds.8 mph78%29.74 "HgN/A
4:20 AM68 °FPassing clouds.6 mph78%29.74 "HgN/A
3:50 AM68 °FPassing clouds.5 mph78%29.74 "HgN/A
3:20 AM68 °FPassing clouds.6 mph78%29.77 "HgN/A
2:50 AM70 °FPassing clouds.8 mph73%29.77 "HgN/A
2:20 AM70 °FClear.7 mph78%29.74 "Hg10 mi
Weather by CustomWeather, © 2014

See weather overviewHow to use our weather pages